Weather History for KSGS - June, 2013

Change the Weather History Date:

Saturday, June 1, 2013

  Actual Average (KMSP) Record (KMSP)
Temperature  
Mean Temperature 64 °F 64 °F  
Max Temperature 73 °F 74 °F 92 °F (1939)
Min Temperature 54 °F 54 °F 37 °F (1946)
Degree Days  
Heating Degree Days 2 4  
Month to date heating degree days 4  
Since 1 June heating degree days 4  
Since 1 July heating degree days 7540  
Cooling Degree Days 0 3  
Month to date cooling degree days 3  
Year to date cooling degree days 45  
Since 1 June cooling degree days 3  
Growing Degree Days 14 (Base 50)    
Moisture  
Dew Point 53 °F    
Average Humidity 69    
Maximum Humidity 88    
Minimum Humidity 49    
Precipitation  
Precipitation 0.00 in 0.12 in 2.37 in (2014)
Month to date precipitation 0.12  
Year to date precipitation 9.70  
Snow  
Snow 0.00 in 0.00 in 0.00 in ()
Month to date snowfall 0.0  
Since 1 June snowfall 0.0  
Since 1 July snowfall 54.4  
Snow Depth -    
Sea Level Pressure  
Sea Level Pressure 29.68 in    
Wind  
Wind Speed 5 mph (NW)    
Max Wind Speed 18 mph    
Max Gust Speed 25 mph    
Visibility 10 miles    
Events Rain    
T = Trace of Precipitation, MM = Missing Value Source: NWS Daily Summary

Daily Weather History Graph

Daily Weather History Graph

Search for Another Location

Airport or City:

Trip Planner

Search our weather history database for the weather conditions in past years. The results will help you decide how hot, cold, wet, or windy it might be!

Date:

Astronomy

Jun. 01, 2013 Rise Set
Actual Time 5:29 AM CDT 8:51 PM CDT
Civil Twilight 4:52 AM CDT 9:27 PM CDT
Nautical Twilight 4:05 AM CDT 10:15 PM CDT
Astronomical Twilight 3:06 AM CDT 11:15 PM CDT
Moon 1:42 AM CDT (6/1) 2:06 PM CDT (6/1)
Length of Visible Light 16h 34m
Length of Day
15h 22m
Last Quarter, 40% of the Moon is Illuminated
Jun 1
Last Quarter
Jun 8
New
Jun 16
First Quarter
Jun 23
Full
Jun 29
Last Quarter

Hourly Weather History & Observations

Time (CDT) Temp. Dew Point Humidity Pressure Visibility Wind Dir Wind Speed Gust Speed Precip Events Conditions
12:14 AM 64.6 °F 57.2 °F 77% 29.56 in 10.0 mi Calm Calm - N/A   Scattered Clouds
12:34 AM 64.6 °F 57.2 °F 77% 29.56 in 10.0 mi SSE 4.6 mph - N/A   Scattered Clouds
12:54 AM 63.5 °F 57.2 °F 80% 29.56 in 10.0 mi South 3.5 mph - N/A   Clear
1:14 AM 63.7 °F 56.3 °F 77% 29.56 in 10.0 mi SSE 5.8 mph - N/A   Scattered Clouds
1:34 AM 64.4 °F 55.6 °F 73% 29.56 in 10.0 mi SSE 10.4 mph 17.3 mph N/A   Scattered Clouds
1:54 AM 63.3 °F 53.8 °F 71% 29.57 in 10.0 mi SSE 6.9 mph 10.4 mph N/A   Scattered Clouds
2:14 AM 62.2 °F 53.6 °F 73% 29.57 in 10.0 mi SSE 5.8 mph - N/A   Clear
2:34 AM 61.2 °F 54.0 °F 77% 29.57 in 10.0 mi South 3.5 mph - N/A   Clear
2:54 AM 61.0 °F 54.1 °F 78% 29.57 in 10.0 mi Calm Calm - N/A   Scattered Clouds
3:14 AM 60.8 °F 54.1 °F 79% 29.57 in 10.0 mi Calm Calm - N/A   Mostly Cloudy
3:34 AM 60.8 °F 54.5 °F 80% 29.58 in 10.0 mi SE 3.5 mph - N/A   Mostly Cloudy
3:54 AM 60.8 °F 54.9 °F 81% 29.57 in 10.0 mi Calm Calm - N/A   Mostly Cloudy
4:14 AM 60.4 °F 54.9 °F 82% 29.57 in 10.0 mi SSE 3.5 mph - N/A   Mostly Cloudy
4:34 AM 59.9 °F 54.7 °F 83% 29.57 in 10.0 mi Calm Calm - N/A   Scattered Clouds
4:54 AM 59.2 °F 54.9 °F 86% 29.56 in 10.0 mi Calm Calm - N/A   Clear
5:14 AM 59.4 °F 55.2 °F 86% 29.57 in 10.0 mi SE 3.5 mph - N/A   Scattered Clouds
5:34 AM 59.0 °F 55.0 °F 87% 29.58 in 10.0 mi Calm Calm - N/A   Mostly Cloudy
5:54 AM 58.5 °F 54.9 °F 88% 29.58 in 10.0 mi Calm Calm - N/A   Scattered Clouds
6:14 AM 58.1 °F 54.7 °F 88% 29.59 in 10.0 mi Calm Calm - N/A   Clear
6:34 AM 58.1 °F 54.7 °F 88% 29.60 in 10.0 mi Calm Calm - N/A   Clear
6:54 AM 60.1 °F 55.6 °F 85% 29.60 in 10.0 mi Calm Calm - N/A   Clear
7:14 AM 61.2 °F 55.0 °F 80% 29.59 in 10.0 mi Calm Calm - N/A   Clear
7:34 AM 62.2 °F 54.0 °F 74% 29.59 in 10.0 mi WSW 4.6 mph - N/A   Clear
7:54 AM 63.5 °F 54.3 °F 72% 29.60 in 10.0 mi WSW 4.6 mph - N/A   Mostly Cloudy
8:14 AM 64.4 °F 54.7 °F 71% 29.60 in 10.0 mi WSW 4.6 mph - N/A   Overcast
8:34 AM 64.8 °F 54.9 °F 70% 29.61 in 10.0 mi West 6.9 mph - N/A   Scattered Clouds
8:54 AM 65.5 °F 54.9 °F 68% 29.62 in 10.0 mi West 6.9 mph - N/A   Clear
9:14 AM 65.8 °F 54.9 °F 68% 29.63 in 10.0 mi Calm Calm - N/A   Clear
9:34 AM 66.6 °F 55.6 °F 68% 29.63 in 10.0 mi SW 5.8 mph - N/A   Scattered Clouds
9:54 AM 67.3 °F 55.0 °F 65% 29.63 in 10.0 mi WNW 3.5 mph - N/A   Clear
10:14 AM 68.0 °F 55.6 °F 64% 29.63 in 10.0 mi SW 4.6 mph - N/A   Clear
10:34 AM 68.7 °F 55.4 °F 62% 29.64 in 10.0 mi West 3.5 mph - N/A   Mostly Cloudy
10:54 AM 69.3 °F 54.5 °F 59% 29.64 in 10.0 mi WNW 3.5 mph - N/A   Scattered Clouds
11:14 AM 70.7 °F 55.4 °F 58% 29.64 in 10.0 mi WSW 3.5 mph - N/A   Mostly Cloudy
11:34 AM 70.0 °F 54.1 °F 57% 29.65 in 10.0 mi West 5.8 mph - N/A   Mostly Cloudy
11:54 AM 70.9 °F 54.1 °F 55% 29.64 in 10.0 mi WSW 3.5 mph - N/A   Scattered Clouds
12:14 PM 72.1 °F 54.1 °F 53% 29.64 in 10.0 mi Calm Calm - N/A   Scattered Clouds
12:34 PM 73.0 °F 54.0 °F 51% 29.64 in 10.0 mi Calm Calm - N/A   Scattered Clouds
12:54 PM 72.0 °F 53.1 °F 51% 29.64 in 10.0 mi West 5.8 mph - N/A   Mostly Cloudy
1:14 PM 72.0 °F 54.7 °F 54% 29.65 in 10.0 mi West 6.9 mph - N/A   Mostly Cloudy
1:34 PM 72.7 °F 52.5 °F 49% 29.65 in 10.0 mi Calm Calm - N/A   Mostly Cloudy
1:54 PM 72.0 °F 54.0 °F 53% 29.65 in 10.0 mi WSW 4.6 mph - N/A   Overcast
2:14 PM 71.6 °F 54.0 °F 54% 29.65 in 10.0 mi West 5.8 mph - N/A   Overcast
2:34 PM 71.4 °F 55.9 °F 58% 29.66 in 7.0 mi West 5.8 mph - N/A   Mostly Cloudy
2:54 PM 71.1 °F 56.1 °F 59% 29.67 in 7.0 mi WNW 15.0 mph 21.9 mph N/A Rain Light Rain
3:14 PM 66.4 °F 57.0 °F 72% 29.68 in 10.0 mi NNW 15.0 mph 20.7 mph N/A Rain Light Rain
3:34 PM 67.3 °F 57.6 °F 71% 29.68 in 10.0 mi NNW 10.4 mph 17.3 mph N/A   Scattered Clouds
3:54 PM 69.4 °F 59.5 °F 71% 29.69 in 10.0 mi NNW 11.5 mph 17.3 mph N/A   Scattered Clouds
4:14 PM 69.3 °F 57.2 °F 65% 29.70 in 10.0 mi NNW 11.5 mph 19.6 mph N/A   Mostly Cloudy
4:34 PM 68.4 °F 55.9 °F 64% 29.70 in 10.0 mi North 16.1 mph 21.9 mph N/A   Mostly Cloudy
4:54 PM 67.1 °F 55.9 °F 67% 29.72 in 10.0 mi NNW 16.1 mph 21.9 mph N/A   Overcast
5:14 PM 66.2 °F 54.5 °F 66% 29.73 in 10.0 mi NNW 12.7 mph 21.9 mph N/A   Overcast
5:34 PM 65.1 °F 53.6 °F 66% 29.74 in 10.0 mi North 17.3 mph - N/A   Overcast
5:54 PM 63.1 °F 52.9 °F 69% 29.76 in 10.0 mi North 16.1 mph 21.9 mph N/A   Overcast
6:14 PM 62.1 °F 51.8 °F 69% 29.77 in 10.0 mi North 13.8 mph 21.9 mph N/A   Overcast
6:34 PM 60.8 °F 50.9 °F 70% 29.78 in 10.0 mi NNW 18.4 mph 25.3 mph N/A   Overcast
6:54 PM 60.3 °F 50.0 °F 69% 29.79 in 10.0 mi North 13.8 mph - N/A   Overcast
7:14 PM 59.9 °F 49.1 °F 67% 29.80 in 10.0 mi North 15.0 mph 24.2 mph N/A   Overcast
7:34 PM 58.5 °F 48.2 °F 69% 29.82 in 10.0 mi North 17.3 mph 21.9 mph N/A   Overcast
7:54 PM 57.7 °F 47.7 °F 69% 29.84 in 10.0 mi North 12.7 mph 20.7 mph N/A   Overcast
8:14 PM 57.2 °F 47.3 °F 69% 29.84 in 10.0 mi North 13.8 mph 21.9 mph N/A   Overcast
8:34 PM 55.8 °F 46.8 °F 72% 29.85 in 10.0 mi North 17.3 mph 24.2 mph N/A   Overcast
8:54 PM 55.8 °F 45.9 °F 69% 29.86 in 10.0 mi North 12.7 mph 19.6 mph N/A   Overcast
9:14 PM 55.6 °F 44.6 °F 67% 29.87 in 10.0 mi North 9.2 mph 19.6 mph N/A   Overcast
9:34 PM 55.4 °F 44.8 °F 67% 29.88 in 10.0 mi North 16.1 mph 19.6 mph N/A   Overcast
9:54 PM 54.7 °F 45.0 °F 70% 29.89 in 10.0 mi North 12.7 mph - N/A   Overcast
10:14 PM 54.1 °F 44.8 °F 71% 29.90 in 10.0 mi North 12.7 mph 21.9 mph N/A   Overcast
10:34 PM 54.9 °F 43.2 °F 65% 29.91 in 10.0 mi North 16.1 mph 21.9 mph N/A   Overcast
10:54 PM 54.9 °F 42.8 °F 64% 29.91 in 10.0 mi North 13.8 mph 19.6 mph N/A   Overcast
11:14 PM 54.9 °F 42.8 °F 64% 29.91 in 10.0 mi North 13.8 mph 18.4 mph N/A   Overcast
11:34 PM 54.7 °F 42.8 °F 64% 29.92 in 10.0 mi North 10.4 mph 19.6 mph N/A   Overcast
11:54 PM 54.9 °F 42.6 °F 63% 29.93 in 10.0 mi North 12.7 mph 20.7 mph N/A   Overcast